GEFSNGP_prec_meanprecacc_108.txt.gz
Total_Precipitation_Accumulation
0.03 0.07 0.09 0.09 0.08 0.06 0.05 0.06 0.12 0.11 0.13 0.12 0.06 0.02 0.03 0.04 0.05 0.05 0.04 0.07 0.06 0.06 0.09 0.12 0.16 0.21 0.25 0.25 0.26 0.30 0.42 0.59 0.74 0.84 0.70 0.49 0.38 0.32 0.30 0.35 0.43 0.54 0.66 0.76
0.03 0.06 0.07 0.08 0.08 0.06 0.05 0.04 0.04 0.06 0.08 0.05 0.04 0.04 0.04 0.04 0.05 0.05 0.04 0.06 0.06 0.08 0.11 0.14 0.16 0.17 0.19 0.21 0.22 0.27 0.35 0.42 0.52 0.57 0.48 0.34 0.22 0.18 0.23 0.31 0.39 0.48 0.55 0.63
0.04 0.07 0.07 0.09 0.10 0.07 0.05 0.05 0.06 0.08 0.09 0.07 0.07 0.07 0.07 0.07 0.05 0.05 0.05 0.04 0.05 0.05 0.07 0.09 0.12 0.13 0.13 0.14 0.19 0.30 0.38 0.37 0.43 0.48 0.42 0.31 0.20 0.18 0.22 0.29 0.35 0.39 0.42 0.46
0.06 0.08 0.13 0.09 0.07 0.07 0.07 0.08 0.08 0.09 0.09 0.10 0.12 0.09 0.09 0.09 0.07 0.06 0.06 0.05 0.06 0.06 0.06 0.06 0.08 0.09 0.09 0.12 0.19 0.29 0.36 0.37 0.47 0.55 0.50 0.40 0.34 0.31 0.33 0.36 0.38 0.39 0.39 0.39
0.14 0.11 0.09 0.09 0.12 0.14 0.15 0.14 0.12 0.14 0.14 0.14 0.13 0.10 0.09 0.08 0.06 0.05 0.05 0.05 0.06 0.07 0.07 0.07 0.08 0.09 0.09 0.12 0.19 0.26 0.33 0.40 0.46 0.55 0.56 0.49 0.46 0.46 0.47 0.47 0.45 0.44 0.41 0.42
0.15 0.17 0.18 0.15 0.17 0.17 0.17 0.28 0.22 0.17 0.15 0.12 0.11 0.16 0.14 0.10 0.07 0.06 0.06 0.06 0.07 0.07 0.07 0.08 0.09 0.12 0.16 0.18 0.22 0.29 0.35 0.41 0.47 0.58 0.64 0.59 0.57 0.59 0.58 0.60 0.54 0.50 0.47 0.50
0.19 0.22 0.21 0.21 0.17 0.16 0.31 0.39 0.25 0.19 0.14 0.13 0.18 0.22 0.18 0.14 0.12 0.09 0.09 0.09 0.10 0.10 0.11 0.11 0.14 0.19 0.24 0.24 0.27 0.31 0.35 0.40 0.50 0.64 0.71 0.70 0.74 0.76 0.72 0.68 0.67 0.67 0.62 0.62
0.31 0.41 0.37 0.24 0.18 0.22 0.29 0.27 0.30 0.27 0.19 0.17 0.17 0.16 0.13 0.12 0.12 0.11 0.11 0.10 0.11 0.12 0.13 0.16 0.21 0.27 0.31 0.33 0.33 0.35 0.38 0.45 0.57 0.66 0.61 0.59 0.77 0.85 0.85 0.85 0.81 0.80 0.79 0.74
0.34 0.39 0.31 0.28 0.28 0.25 0.27 0.29 0.27 0.25 0.20 0.17 0.17 0.15 0.13 0.12 0.11 0.11 0.11 0.12 0.12 0.15 0.19 0.23 0.31 0.40 0.49 0.50 0.49 0.47 0.48 0.53 0.61 0.65 0.71 0.80 0.85 0.87 0.91 0.94 0.90 0.85 0.86 0.84
0.30 0.29 0.26 0.29 0.31 0.25 0.24 0.21 0.16 0.15 0.17 0.16 0.15 0.14 0.14 0.13 0.12 0.12 0.12 0.13 0.14 0.18 0.25 0.33 0.44 0.54 0.63 0.64 0.62 0.59 0.57 0.56 0.58 0.65 0.70 0.84 0.98 0.97 0.93 0.92 0.95 0.95 0.92 0.89
0.28 0.30 0.33 0.35 0.36 0.30 0.22 0.16 0.13 0.12 0.15 0.16 0.16 0.15 0.16 0.17 0.17 0.15 0.14 0.13 0.15 0.23 0.35 0.44 0.56 0.66 0.68 0.69 0.72 0.73 0.67 0.62 0.60 0.64 0.72 0.84 0.93 1.00 0.94 0.92 0.80 0.81 0.83 0.84
0.32 0.32 0.35 0.40 0.36 0.32 0.23 0.17 0.16 0.16 0.15 0.14 0.13 0.15 0.14 0.15 0.16 0.15 0.14 0.15 0.20 0.28 0.36 0.42 0.55 0.69 0.75 0.78 0.84 0.89 0.88 0.81 0.77 0.77 0.81 0.85 0.91 0.91 0.77 0.68 0.56 0.53 0.53 0.55
0.27 0.26 0.29 0.31 0.28 0.23 0.20 0.19 0.17 0.16 0.16 0.15 0.15 0.14 0.13 0.12 0.12 0.12 0.12 0.16 0.22 0.27 0.33 0.39 0.48 0.59 0.71 0.84 0.94 1.00 0.98 0.96 0.93 0.85 0.86 0.90 0.94 0.99 0.96 0.80 0.64 0.53 0.44 0.39
0.24 0.23 0.24 0.20 0.18 0.16 0.15 0.15 0.12 0.11 0.13 0.13 0.12 0.12 0.12 0.11 0.11 0.11 0.13 0.16 0.18 0.23 0.29 0.38 0.48 0.56 0.64 0.81 0.93 0.97 0.97 0.95 0.93 0.90 0.87 0.90 0.94 0.96 1.02 1.06 0.97 0.79 0.60 0.45
0.28 0.25 0.25 0.19 0.13 0.13 0.13 0.11 0.11 0.11 0.11 0.10 0.09 0.09 0.09 0.11 0.12 0.14 0.15 0.18 0.22 0.26 0.31 0.41 0.52 0.59 0.72 0.85 0.92 0.94 0.93 0.90 0.87 0.88 0.90 0.88 0.91 0.92 0.93 1.01 1.01 0.96 0.83 0.65
0.23 0.20 0.18 0.18 0.16 0.14 0.13 0.13 0.12 0.11 0.10 0.09 0.09 0.09 0.09 0.11 0.12 0.15 0.17 0.22 0.31 0.35 0.42 0.54 0.60 0.65 0.78 0.91 0.99 0.97 0.95 0.87 0.81 0.80 0.84 0.86 0.88 0.92 0.91 0.97 0.99 1.00 0.91 0.75
0.22 0.18 0.16 0.16 0.16 0.15 0.15 0.15 0.13 0.11 0.11 0.11 0.11 0.10 0.10 0.12 0.17 0.21 0.24 0.26 0.33 0.40 0.49 0.63 0.66 0.66 0.80 0.94 1.04 1.02 0.96 0.86 0.74 0.72 0.75 0.80 0.86 0.88 0.88 0.90 0.92 0.94 0.84 0.65
0.18 0.17 0.16 0.16 0.17 0.17 0.17 0.17 0.15 0.15 0.16 0.16 0.16 0.16 0.19 0.26 0.35 0.41 0.41 0.42 0.46 0.44 0.46 0.58 0.64 0.69 0.78 0.89 0.97 1.00 0.98 0.90 0.78 0.67 0.65 0.72 0.78 0.83 0.86 0.85 0.85 0.85 0.78 0.58
0.14 0.14 0.14 0.17 0.21 0.21 0.21 0.21 0.22 0.23 0.24 0.23 0.23 0.26 0.30 0.38 0.49 0.58 0.59 0.62 0.68 0.66 0.58 0.56 0.61 0.64 0.73 0.79 0.84 0.93 0.90 0.84 0.75 0.59 0.58 0.64 0.72 0.81 0.82 0.78 0.79 0.79 0.70 0.58
0.09 0.10 0.11 0.19 0.30 0.35 0.35 0.35 0.36 0.36 0.33 0.32 0.33 0.37 0.42 0.47 0.57 0.68 0.71 0.68 0.69 0.75 0.70 0.62 0.58 0.61 0.66 0.70 0.73 0.78 0.76 0.77 0.73 0.56 0.53 0.66 0.74 0.81 0.78 0.71 0.73 0.71 0.61 0.57
0.06 0.06 0.06 0.09 0.15 0.23 0.27 0.29 0.30 0.35 0.36 0.41 0.50 0.59 0.66 0.65 0.67 0.79 0.89 0.79 0.65 0.69 0.67 0.60 0.53 0.54 0.57 0.68 0.71 0.73 0.71 0.70 0.73 0.62 0.54 0.63 0.72 0.77 0.74 0.67 0.64 0.58 0.52 0.52
0.04 0.04 0.06 0.08 0.09 0.10 0.12 0.14 0.20 0.31 0.38 0.44 0.50 0.63 0.77 0.84 0.88 0.88 0.81 0.79 0.72 0.72 0.64 0.56 0.50 0.48 0.48 0.55 0.67 0.71 0.70 0.68 0.71 0.69 0.62 0.63 0.70 0.73 0.71 0.62 0.55 0.49 0.46 0.47
0.04 0.04 0.04 0.04 0.05 0.07 0.09 0.11 0.17 0.27 0.37 0.44 0.54 0.72 0.88 0.93 1.02 1.16 0.98 0.72 0.67 0.68 0.63 0.53 0.49 0.46 0.42 0.41 0.55 0.64 0.64 0.68 0.71 0.70 0.66 0.61 0.59 0.60 0.60 0.53 0.48 0.46 0.49 0.51
0.04 0.04 0.04 0.04 0.06 0.09 0.12 0.15 0.19 0.26 0.35 0.41 0.49 0.66 0.88 1.04 1.00 0.91 0.86 0.75 0.64 0.58 0.56 0.51 0.42 0.40 0.39 0.36 0.44 0.53 0.58 0.62 0.60 0.58 0.55 0.51 0.53 0.55 0.52 0.49 0.46 0.48 0.52 0.54
0.06 0.05 0.05 0.06 0.11 0.17 0.25 0.31 0.34 0.38 0.46 0.49 0.50 0.56 0.68 0.90 1.06 0.89 0.71 0.65 0.61 0.53 0.51 0.51 0.44 0.39 0.35 0.32 0.34 0.41 0.47 0.50 0.49 0.49 0.46 0.46 0.48 0.48 0.43 0.41 0.43 0.47 0.52 0.54
0.05 0.05 0.06 0.09 0.16 0.27 0.40 0.52 0.61 0.65 0.74 0.79 0.71 0.65 0.66 0.73 0.83 0.82 0.69 0.59 0.54 0.52 0.47 0.47 0.44 0.39 0.35 0.32 0.30 0.34 0.40 0.46 0.48 0.46 0.42 0.45 0.45 0.42 0.43 0.45 0.42 0.42 0.45 0.44
0.07 0.07 0.09 0.13 0.20 0.32 0.48 0.63 0.76 0.85 0.93 1.02 0.97 0.82 0.75 0.73 0.75 0.75 0.68 0.60 0.57 0.56 0.53 0.49 0.47 0.44 0.41 0.37 0.32 0.32 0.38 0.44 0.47 0.48 0.47 0.49 0.52 0.51 0.48 0.46 0.41 0.39 0.39 0.34

GEFSNGP_prec_meanprecacc_114.txt.gz
Total_Precipitation_Accumulation
0.06 0.11 0.13 0.15 0.12 0.08 0.06 0.07 0.13 0.14 0.17 0.16 0.09 0.05 0.04 0.06 0.07 0.06 0.08 0.09 0.07 0.07 0.09 0.12 0.16 0.22 0.26 0.26 0.28 0.33 0.46 0.63 0.77 0.87 0.72 0.52 0.40 0.34 0.33 0.37 0.44 0.56 0.67 0.77
0.04 0.07 0.10 0.12 0.13 0.08 0.06 0.05 0.04 0.08 0.11 0.07 0.08 0.09 0.10 0.08 0.08 0.08 0.11 0.10 0.08 0.09 0.12 0.15 0.18 0.19 0.20 0.23 0.25 0.30 0.38 0.46 0.56 0.61 0.51 0.36 0.24 0.19 0.24 0.32 0.40 0.49 0.56 0.63
0.07 0.09 0.08 0.11 0.12 0.08 0.06 0.07 0.08 0.10 0.11 0.09 0.11 0.12 0.11 0.10 0.08 0.07 0.07 0.09 0.09 0.07 0.08 0.10 0.13 0.15 0.15 0.16 0.22 0.34 0.42 0.42 0.48 0.53 0.46 0.33 0.21 0.19 0.23 0.30 0.36 0.40 0.42 0.46
0.15 0.16 0.20 0.12 0.09 0.08 0.08 0.09 0.09 0.11 0.12 0.13 0.16 0.15 0.10 0.10 0.08 0.07 0.07 0.08 0.09 0.09 0.09 0.09 0.10 0.12 0.13 0.15 0.24 0.35 0.42 0.44 0.54 0.60 0.56 0.45 0.37 0.34 0.36 0.39 0.41 0.42 0.41 0.41
0.27 0.25 0.20 0.16 0.14 0.15 0.17 0.17 0.13 0.16 0.17 0.17 0.17 0.13 0.11 0.09 0.06 0.05 0.06 0.06 0.07 0.08 0.09 0.09 0.10 0.12 0.15 0.18 0.25 0.34 0.41 0.48 0.54 0.64 0.66 0.59 0.55 0.52 0.53 0.52 0.50 0.47 0.44 0.44
0.27 0.31 0.31 0.28 0.26 0.21 0.21 0.36 0.25 0.21 0.20 0.16 0.15 0.25 0.22 0.13 0.10 0.07 0.06 0.07 0.08 0.09 0.10 0.10 0.11 0.15 0.21 0.24 0.30 0.38 0.42 0.48 0.54 0.65 0.73 0.68 0.66 0.66 0.64 0.65 0.59 0.55 0.50 0.53
0.32 0.35 0.38 0.36 0.28 0.24 0.44 0.56 0.33 0.24 0.20 0.21 0.22 0.25 0.21 0.16 0.14 0.11 0.09 0.10 0.11 0.12 0.14 0.15 0.18 0.23 0.30 0.32 0.35 0.38 0.42 0.47 0.58 0.74 0.81 0.79 0.82 0.84 0.80 0.75 0.73 0.73 0.67 0.66
0.44 0.56 0.54 0.37 0.32 0.41 0.49 0.41 0.37 0.30 0.22 0.22 0.20 0.16 0.13 0.12 0.13 0.12 0.11 0.11 0.12 0.13 0.16 0.19 0.26 0.32 0.39 0.42 0.41 0.42 0.45 0.53 0.67 0.77 0.71 0.67 0.84 0.92 0.93 0.93 0.89 0.87 0.85 0.80
0.51 0.59 0.45 0.37 0.41 0.43 0.44 0.43 0.35 0.29 0.24 0.19 0.19 0.17 0.14 0.12 0.12 0.12 0.13 0.14 0.14 0.17 0.22 0.26 0.35 0.45 0.55 0.57 0.57 0.56 0.59 0.65 0.74 0.79 0.85 0.93 0.99 1.00 1.03 1.05 1.00 0.93 0.93 0.91
0.48 0.46 0.36 0.36 0.40 0.33 0.33 0.32 0.23 0.17 0.18 0.18 0.17 0.16 0.15 0.14 0.14 0.15 0.16 0.17 0.18 0.21 0.27 0.35 0.45 0.56 0.65 0.68 0.66 0.66 0.66 0.67 0.71 0.79 0.85 1.00 1.16 1.14 1.08 1.06 1.08 1.05 1.01 0.96
0.45 0.44 0.43 0.46 0.47 0.39 0.31 0.24 0.17 0.13 0.16 0.17 0.17 0.17 0.17 0.17 0.18 0.16 0.16 0.16 0.19 0.31 0.41 0.47 0.57 0.68 0.70 0.72 0.76 0.80 0.76 0.71 0.72 0.78 0.87 1.01 1.12 1.18 1.11 1.05 0.91 0.90 0.90 0.90
0.47 0.42 0.43 0.48 0.43 0.37 0.27 0.20 0.17 0.17 0.16 0.15 0.14 0.16 0.16 0.16 0.17 0.16 0.15 0.17 0.23 0.33 0.42 0.46 0.57 0.72 0.78 0.82 0.89 0.95 0.95 0.90 0.87 0.87 0.90 0.94 1.00 0.99 0.86 0.76 0.63 0.58 0.57 0.58
0.32 0.30 0.33 0.36 0.31 0.25 0.22 0.21 0.18 0.19 0.18 0.17 0.17 0.15 0.14 0.14 0.14 0.13 0.15 0.19 0.25 0.30 0.35 0.41 0.50 0.61 0.73 0.87 0.98 1.04 1.03 1.01 0.99 0.92 0.93 0.97 1.01 1.06 1.03 0.87 0.70 0.58 0.47 0.41
0.27 0.24 0.26 0.23 0.21 0.19 0.19 0.18 0.15 0.14 0.15 0.14 0.14 0.14 0.13 0.13 0.13 0.13 0.16 0.18 0.20 0.24 0.31 0.40 0.50 0.57 0.66 0.83 0.96 1.00 1.00 0.99 0.96 0.93 0.91 0.94 0.97 1.00 1.06 1.10 1.00 0.83 0.63 0.48
0.34 0.28 0.28 0.22 0.16 0.16 0.16 0.14 0.13 0.12 0.12 0.12 0.12 0.12 0.12 0.13 0.14 0.16 0.18 0.20 0.24 0.27 0.32 0.42 0.53 0.60 0.72 0.86 0.93 0.95 0.95 0.93 0.89 0.91 0.92 0.91 0.93 0.95 0.96 1.03 1.04 0.98 0.84 0.66
0.29 0.23 0.20 0.20 0.19 0.18 0.17 0.16 0.14 0.12 0.11 0.10 0.10 0.10 0.11 0.12 0.15 0.18 0.20 0.26 0.35 0.38 0.43 0.55 0.61 0.65 0.78 0.91 0.99 0.99 0.97 0.89 0.83 0.83 0.87 0.88 0.90 0.93 0.92 0.99 1.01 1.02 0.92 0.76
0.29 0.21 0.18 0.17 0.17 0.17 0.18 0.18 0.15 0.13 0.12 0.12 0.11 0.10 0.11 0.13 0.17 0.21 0.24 0.27 0.35 0.41 0.50 0.64 0.67 0.67 0.80 0.94 1.04 1.03 0.96 0.87 0.75 0.73 0.76 0.81 0.86 0.89 0.88 0.91 0.92 0.95 0.85 0.65
0.21 0.20 0.18 0.18 0.18 0.19 0.20 0.20 0.18 0.16 0.17 0.17 0.17 0.16 0.19 0.26 0.35 0.41 0.42 0.42 0.46 0.44 0.47 0.58 0.64 0.70 0.79 0.89 0.97 1.00 0.98 0.90 0.78 0.67 0.65 0.72 0.78 0.83 0.86 0.86 0.86 0.86 0.78 0.59
0.15 0.16 0.16 0.19 0.22 0.24 0.23 0.23 0.24 0.24 0.25 0.24 0.24 0.27 0.31 0.39 0.51 0.59 0.59 0.63 0.68 0.66 0.58 0.56 0.61 0.64 0.73 0.79 0.84 0.93 0.90 0.84 0.75 0.59 0.58 0.64 0.72 0.82 0.83 0.78 0.80 0.80 0.71 0.59
0.10 0.10 0.12 0.21 0.32 0.37 0.36 0.35 0.37 0.37 0.35 0.33 0.35 0.39 0.45 0.50 0.60 0.70 0.72 0.70 0.70 0.75 0.70 0.62 0.58 0.61 0.66 0.70 0.73 0.78 0.76 0.77 0.73 0.56 0.53 0.66 0.75 0.81 0.78 0.71 0.73 0.71 0.62 0.57
0.07 0.07 0.08 0.11 0.17 0.24 0.29 0.29 0.31 0.36 0.37 0.42 0.52 0.62 0.70 0.68 0.71 0.83 0.92 0.81 0.66 0.69 0.67 0.60 0.53 0.54 0.57 0.68 0.71 0.73 0.71 0.70 0.73 0.62 0.54 0.63 0.73 0.77 0.74 0.68 0.64 0.58 0.52 0.52
0.06 0.06 0.08 0.11 0.13 0.13 0.13 0.15 0.21 0.31 0.39 0.44 0.51 0.64 0.79 0.86 0.91 0.90 0.82 0.81 0.73 0.72 0.64 0.56 0.50 0.48 0.48 0.55 0.67 0.71 0.70 0.69 0.72 0.69 0.62 0.63 0.70 0.73 0.71 0.63 0.56 0.50 0.47 0.48
0.05 0.04 0.04 0.05 0.07 0.09 0.11 0.13 0.18 0.28 0.37 0.45 0.54 0.73 0.89 0.94 1.03 1.16 0.99 0.73 0.67 0.68 0.63 0.54 0.49 0.46 0.42 0.41 0.55 0.64 0.64 0.68 0.71 0.70 0.66 0.61 0.59 0.60 0.60 0.54 0.49 0.48 0.51 0.54
0.06 0.04 0.04 0.04 0.06 0.09 0.12 0.15 0.19 0.26 0.35 0.42 0.50 0.67 0.89 1.05 1.01 0.92 0.87 0.75 0.65 0.58 0.56 0.51 0.43 0.40 0.39 0.36 0.44 0.53 0.58 0.62 0.60 0.58 0.55 0.51 0.53 0.55 0.52 0.50 0.48 0.51 0.56 0.58
0.07 0.08 0.08 0.09 0.13 0.18 0.25 0.31 0.34 0.39 0.47 0.50 0.50 0.57 0.68 0.91 1.07 0.91 0.72 0.67 0.62 0.53 0.52 0.52 0.44 0.39 0.35 0.33 0.35 0.42 0.47 0.51 0.50 0.49 0.46 0.47 0.49 0.49 0.44 0.43 0.45 0.49 0.54 0.57
0.06 0.06 0.08 0.11 0.17 0.28 0.41 0.53 0.62 0.66 0.75 0.80 0.72 0.66 0.67 0.74 0.85 0.84 0.71 0.61 0.56 0.53 0.49 0.48 0.46 0.41 0.36 0.35 0.33 0.36 0.42 0.48 0.49 0.47 0.43 0.47 0.46 0.43 0.44 0.47 0.44 0.44 0.47 0.47
0.08 0.08 0.10 0.14 0.21 0.32 0.48 0.64 0.77 0.87 0.95 1.04 0.99 0.83 0.77 0.74 0.78 0.78 0.70 0.63 0.60 0.58 0.56 0.53 0.50 0.47 0.44 0.40 0.35 0.34 0.39 0.46 0.49 0.49 0.49 0.51 0.53 0.53 0.50 0.48 0.45 0.42 0.42 0.37

GEFSNGP_prec_meanprecacc_120.txt.gz
Total_Precipitation_Accumulation
0.09 0.15 0.18 0.22 0.18 0.12 0.09 0.09 0.16 0.17 0.23 0.22 0.18 0.21 0.26 0.21 0.16 0.15 0.19 0.17 0.13 0.11 0.13 0.17 0.21 0.26 0.30 0.32 0.34 0.42 0.56 0.71 0.84 0.95 0.80 0.58 0.46 0.40 0.38 0.42 0.49 0.60 0.72 0.81
0.08 0.12 0.14 0.19 0.19 0.12 0.09 0.07 0.06 0.10 0.18 0.18 0.22 0.24 0.26 0.23 0.21 0.19 0.25 0.25 0.21 0.22 0.21 0.21 0.23 0.25 0.26 0.29 0.33 0.39 0.50 0.59 0.67 0.71 0.61 0.46 0.33 0.30 0.33 0.39 0.46 0.54 0.61 0.68
0.13 0.13 0.13 0.17 0.18 0.14 0.10 0.10 0.12 0.16 0.19 0.20 0.25 0.24 0.24 0.23 0.18 0.16 0.15 0.18 0.22 0.19 0.18 0.18 0.21 0.23 0.24 0.25 0.35 0.51 0.58 0.55 0.61 0.66 0.59 0.47 0.33 0.29 0.32 0.39 0.47 0.50 0.49 0.52
0.22 0.22 0.27 0.19 0.17 0.16 0.15 0.17 0.20 0.22 0.21 0.23 0.28 0.23 0.17 0.17 0.15 0.15 0.15 0.17 0.20 0.23 0.21 0.18 0.19 0.21 0.22 0.24 0.33 0.47 0.56 0.57 0.66 0.73 0.68 0.57 0.48 0.43 0.45 0.48 0.49 0.49 0.48 0.47
0.37 0.34 0.27 0.25 0.24 0.26 0.28 0.34 0.30 0.28 0.25 0.26 0.28 0.27 0.22 0.16 0.13 0.13 0.15 0.17 0.17 0.20 0.22 0.21 0.23 0.26 0.28 0.32 0.40 0.51 0.59 0.66 0.70 0.79 0.82 0.76 0.75 0.75 0.75 0.72 0.65 0.60 0.55 0.53
0.40 0.44 0.45 0.43 0.38 0.32 0.36 0.59 0.53 0.40 0.32 0.28 0.31 0.48 0.47 0.28 0.19 0.15 0.16 0.19 0.23 0.25 0.22 0.21 0.25 0.31 0.38 0.44 0.50 0.59 0.68 0.76 0.81 0.91 0.97 0.90 0.89 0.91 0.90 0.92 0.84 0.76 0.68 0.68
0.44 0.50 0.56 0.58 0.42 0.35 0.64 0.82 0.58 0.47 0.40 0.37 0.40 0.45 0.43 0.35 0.28 0.20 0.19 0.21 0.26 0.32 0.25 0.24 0.30 0.39 0.48 0.51 0.56 0.58 0.63 0.70 0.82 1.01 1.11 1.12 1.15 1.17 1.13 1.10 1.04 0.96 0.85 0.82
0.57 0.74 0.76 0.54 0.46 0.58 0.70 0.66 0.65 0.58 0.54 0.53 0.47 0.36 0.30 0.25 0.23 0.19 0.16 0.16 0.19 0.23 0.25 0.28 0.36 0.47 0.57 0.60 0.58 0.60 0.63 0.71 0.89 1.05 1.07 1.10 1.28 1.32 1.28 1.26 1.18 1.10 1.02 0.93
0.71 0.78 0.63 0.53 0.57 0.61 0.67 0.71 0.69 0.65 0.66 0.56 0.48 0.35 0.27 0.21 0.17 0.16 0.15 0.16 0.17 0.22 0.30 0.40 0.50 0.61 0.74 0.75 0.71 0.69 0.74 0.81 0.92 0.99 1.09 1.21 1.32 1.36 1.36 1.33 1.23 1.12 1.08 1.03
0.70 0.67 0.55 0.52 0.54 0.50 0.54 0.55 0.56 0.48 0.47 0.41 0.43 0.33 0.25 0.18 0.16 0.16 0.17 0.17 0.19 0.23 0.30 0.42 0.57 0.70 0.78 0.80 0.79 0.80 0.81 0.84 0.92 1.01 1.05 1.17 1.32 1.29 1.23 1.21 1.23 1.20 1.15 1.10
0.62 0.64 0.62 0.60 0.61 0.52 0.46 0.39 0.33 0.28 0.29 0.30 0.34 0.32 0.24 0.19 0.19 0.17 0.16 0.16 0.20 0.33 0.45 0.53 0.64 0.75 0.78 0.77 0.82 0.88 0.85 0.82 0.84 0.90 0.99 1.13 1.22 1.29 1.22 1.16 1.03 1.01 1.01 1.03
0.60 0.56 0.55 0.62 0.60 0.50 0.38 0.30 0.27 0.26 0.23 0.23 0.26 0.27 0.21 0.18 0.18 0.17 0.16 0.18 0.23 0.34 0.46 0.55 0.67 0.81 0.85 0.86 0.91 0.98 0.98 0.94 0.92 0.93 0.97 1.02 1.10 1.10 0.98 0.86 0.73 0.67 0.66 0.67
0.40 0.40 0.43 0.48 0.40 0.31 0.28 0.27 0.26 0.26 0.27 0.24 0.23 0.20 0.18 0.17 0.16 0.15 0.16 0.20 0.25 0.30 0.36 0.43 0.55 0.69 0.80 0.91 0.99 1.05 1.04 1.03 1.01 0.94 0.96 1.02 1.07 1.11 1.08 0.92 0.75 0.62 0.53 0.47
0.33 0.32 0.36 0.31 0.25 0.23 0.22 0.23 0.22 0.22 0.22 0.21 0.19 0.18 0.18 0.17 0.16 0.16 0.17 0.19 0.22 0.26 0.32 0.41 0.51 0.59 0.69 0.85 0.98 1.02 1.01 0.99 0.97 0.95 0.93 0.96 1.00 1.02 1.08 1.12 1.02 0.85 0.65 0.51
0.43 0.34 0.34 0.27 0.21 0.24 0.23 0.20 0.18 0.16 0.16 0.16 0.15 0.14 0.14 0.17 0.18 0.18 0.19 0.21 0.25 0.29 0.33 0.43 0.53 0.60 0.72 0.86 0.94 0.96 0.96 0.94 0.91 0.92 0.93 0.92 0.96 0.98 1.00 1.07 1.07 1.02 0.88 0.70
0.38 0.29 0.24 0.24 0.23 0.22 0.21 0.21 0.19 0.18 0.16 0.14 0.12 0.11 0.12 0.14 0.16 0.19 0.22 0.27 0.37 0.40 0.45 0.55 0.62 0.65 0.78 0.91 0.99 0.99 0.97 0.89 0.84 0.85 0.90 0.91 0.93 0.96 0.95 1.01 1.03 1.03 0.94 0.77
0.36 0.26 0.20 0.19 0.20 0.20 0.21 0.21 0.19 0.17 0.16 0.14 0.13 0.11 0.11 0.13 0.17 0.22 0.25 0.28 0.35 0.41 0.50 0.64 0.67 0.67 0.80 0.94 1.04 1.03 0.96 0.87 0.75 0.74 0.77 0.82 0.87 0.89 0.89 0.92 0.93 0.95 0.85 0.66
0.26 0.24 0.20 0.20 0.21 0.22 0.22 0.21 0.19 0.18 0.18 0.18 0.17 0.17 0.20 0.26 0.35 0.41 0.42 0.42 0.46 0.44 0.47 0.58 0.64 0.70 0.79 0.89 0.97 1.01 0.98 0.90 0.78 0.67 0.66 0.72 0.78 0.83 0.86 0.86 0.86 0.86 0.78 0.59
0.18 0.19 0.20 0.23 0.26 0.25 0.24 0.24 0.24 0.25 0.25 0.24 0.25 0.27 0.31 0.39 0.51 0.59 0.60 0.63 0.69 0.67 0.59 0.56 0.61 0.65 0.73 0.79 0.84 0.93 0.90 0.84 0.75 0.59 0.58 0.64 0.72 0.82 0.83 0.78 0.80 0.80 0.71 0.59
0.13 0.14 0.15 0.24 0.35 0.38 0.37 0.36 0.38 0.38 0.35 0.34 0.36 0.40 0.46 0.50 0.60 0.70 0.73 0.71 0.71 0.76 0.71 0.62 0.58 0.61 0.66 0.70 0.73 0.78 0.76 0.77 0.73 0.56 0.53 0.66 0.75 0.81 0.78 0.71 0.73 0.72 0.62 0.58
0.10 0.09 0.10 0.13 0.19 0.25 0.29 0.30 0.32 0.36 0.39 0.44 0.53 0.63 0.71 0.69 0.72 0.83 0.93 0.82 0.67 0.69 0.67 0.60 0.53 0.54 0.57 0.68 0.71 0.74 0.71 0.70 0.73 0.62 0.54 0.63 0.73 0.77 0.74 0.68 0.64 0.58 0.53 0.53
0.10 0.08 0.10 0.12 0.13 0.14 0.14 0.16 0.23 0.34 0.42 0.47 0.54 0.66 0.80 0.87 0.91 0.91 0.83 0.81 0.73 0.72 0.64 0.57 0.51 0.48 0.48 0.55 0.67 0.71 0.70 0.69 0.72 0.69 0.62 0.63 0.70 0.73 0.71 0.63 0.56 0.50 0.48 0.49
0.07 0.05 0.05 0.05 0.07 0.10 0.11 0.13 0.18 0.28 0.38 0.46 0.55 0.73 0.90 0.94 1.03 1.17 0.99 0.73 0.67 0.68 0.63 0.54 0.50 0.46 0.43 0.42 0.55 0.64 0.64 0.69 0.71 0.71 0.66 0.61 0.59 0.61 0.61 0.54 0.49 0.49 0.52 0.54
0.06 0.05 0.05 0.05 0.06 0.09 0.13 0.15 0.19 0.26 0.36 0.42 0.51 0.67 0.89 1.05 1.01 0.92 0.87 0.76 0.65 0.59 0.57 0.52 0.43 0.41 0.39 0.36 0.44 0.53 0.58 0.63 0.61 0.58 0.55 0.52 0.54 0.56 0.53 0.51 0.49 0.52 0.57 0.59
0.08 0.08 0.08 0.10 0.14 0.20 0.27 0.32 0.35 0.40 0.48 0.51 0.51 0.57 0.68 0.91 1.07 0.91 0.73 0.67 0.62 0.54 0.52 0.52 0.45 0.40 0.36 0.33 0.35 0.42 0.48 0.52 0.50 0.50 0.47 0.47 0.50 0.49 0.45 0.44 0.46 0.50 0.55 0.58
0.06 0.07 0.08 0.11 0.17 0.28 0.42 0.53 0.62 0.66 0.75 0.80 0.72 0.66 0.67 0.74 0.85 0.85 0.72 0.62 0.57 0.54 0.50 0.49 0.47 0.42 0.38 0.36 0.34 0.37 0.43 0.49 0.51 0.49 0.44 0.48 0.47 0.45 0.46 0.49 0.46 0.46 0.48 0.49
0.09 0.08 0.10 0.14 0.21 0.33 0.49 0.64 0.78 0.87 0.95 1.04 0.99 0.83 0.77 0.75 0.78 0.79 0.72 0.65 0.61 0.60 0.58 0.55 0.52 0.49 0.46 0.42 0.37 0.36 0.42 0.49 0.52 0.51 0.51 0.53 0.56 0.56 0.52 0.50 0.46 0.43 0.43 0.39

GEFSNGP_prec_meanprecacc_126.txt.gz
Total_Precipitation_Accumulation
0.10 0.16 0.20 0.24 0.20 0.14 0.11 0.11 0.18 0.19 0.24 0.24 0.19 0.22 0.27 0.22 0.16 0.16 0.21 0.18 0.14 0.12 0.15 0.20 0.24 0.29 0.32 0.34 0.37 0.44 0.59 0.75 0.91 1.04 0.88 0.66 0.54 0.46 0.42 0.45 0.51 0.62 0.74 0.83
0.09 0.13 0.16 0.20 0.21 0.15 0.12 0.10 0.08 0.12 0.19 0.20 0.24 0.25 0.29 0.26 0.23 0.20 0.27 0.27 0.23 0.25 0.23 0.24 0.27 0.30 0.31 0.33 0.36 0.42 0.54 0.64 0.73 0.79 0.68 0.52 0.37 0.34 0.38 0.43 0.50 0.57 0.64 0.71
0.16 0.15 0.15 0.19 0.20 0.17 0.14 0.13 0.13 0.17 0.20 0.20 0.27 0.26 0.28 0.27 0.22 0.19 0.17 0.21 0.25 0.22 0.20 0.21 0.24 0.26 0.27 0.29 0.39 0.56 0.63 0.62 0.66 0.71 0.64 0.51 0.37 0.34 0.37 0.43 0.51 0.56 0.56 0.58
0.25 0.25 0.29 0.21 0.22 0.21 0.19 0.19 0.22 0.23 0.22 0.25 0.31 0.25 0.20 0.20 0.19 0.19 0.18 0.20 0.23 0.26 0.24 0.21 0.22 0.24 0.26 0.29 0.40 0.55 0.63 0.64 0.73 0.80 0.75 0.63 0.53 0.48 0.50 0.54 0.56 0.57 0.56 0.55
0.39 0.35 0.29 0.27 0.29 0.33 0.34 0.38 0.33 0.30 0.28 0.30 0.32 0.29 0.25 0.19 0.16 0.17 0.18 0.21 0.21 0.24 0.25 0.25 0.27 0.30 0.33 0.37 0.48 0.61 0.69 0.75 0.79 0.88 0.91 0.88 0.88 0.87 0.86 0.83 0.76 0.70 0.65 0.63
0.42 0.46 0.47 0.45 0.41 0.36 0.43 0.66 0.59 0.46 0.39 0.34 0.36 0.52 0.51 0.33 0.25 0.21 0.21 0.24 0.27 0.29 0.26 0.26 0.29 0.35 0.44 0.52 0.59 0.69 0.78 0.88 0.92 1.03 1.10 1.04 1.04 1.07 1.05 1.08 1.01 0.93 0.83 0.81
0.45 0.52 0.59 0.61 0.46 0.40 0.72 0.89 0.68 0.58 0.52 0.46 0.47 0.51 0.50 0.42 0.36 0.30 0.25 0.25 0.30 0.36 0.30 0.30 0.36 0.45 0.56 0.61 0.66 0.69 0.75 0.83 0.95 1.14 1.27 1.31 1.38 1.40 1.34 1.28 1.24 1.15 1.00 0.95
0.60 0.77 0.80 0.58 0.53 0.66 0.79 0.73 0.72 0.69 0.67 0.67 0.58 0.46 0.41 0.37 0.34 0.31 0.26 0.22 0.22 0.26 0.28 0.32 0.40 0.52 0.66 0.72 0.70 0.73 0.77 0.86 1.05 1.21 1.24 1.29 1.50 1.57 1.52 1.45 1.34 1.25 1.17 1.06
0.76 0.84 0.69 0.60 0.65 0.68 0.76 0.80 0.77 0.73 0.76 0.69 0.61 0.47 0.42 0.37 0.30 0.26 0.24 0.22 0.21 0.24 0.32 0.43 0.53 0.66 0.83 0.90 0.88 0.86 0.91 0.99 1.11 1.19 1.29 1.41 1.52 1.54 1.49 1.42 1.31 1.20 1.16 1.10
0.79 0.78 0.65 0.63 0.64 0.59 0.64 0.67 0.68 0.60 0.58 0.54 0.56 0.46 0.39 0.31 0.25 0.21 0.20 0.19 0.20 0.24 0.31 0.43 0.59 0.73 0.83 0.87 0.88 0.90 0.92 0.96 1.05 1.14 1.18 1.28 1.42 1.38 1.32 1.29 1.30 1.27 1.22 1.17
0.71 0.74 0.72 0.71 0.73 0.64 0.56 0.48 0.42 0.36 0.37 0.41 0.46 0.44 0.35 0.27 0.25 0.21 0.18 0.17 0.20 0.33 0.45 0.53 0.64 0.76 0.80 0.81 0.86 0.91 0.90 0.89 0.93 0.99 1.09 1.23 1.32 1.37 1.30 1.24 1.10 1.08 1.08 1.10
0.71 0.67 0.66 0.76 0.76 0.67 0.51 0.41 0.35 0.33 0.31 0.33 0.36 0.36 0.29 0.24 0.23 0.20 0.19 0.19 0.24 0.34 0.46 0.55 0.67 0.81 0.86 0.88 0.96 1.03 1.01 0.97 0.95 0.97 1.01 1.07 1.15 1.15 1.05 0.94 0.80 0.74 0.72 0.73
0.49 0.48 0.52 0.59 0.53 0.47 0.42 0.41 0.38 0.35 0.35 0.33 0.33 0.29 0.25 0.22 0.19 0.17 0.18 0.21 0.26 0.30 0.37 0.44 0.55 0.70 0.81 0.95 1.05 1.11 1.08 1.05 1.02 0.96 0.99 1.05 1.09 1.13 1.11 0.95 0.78 0.66 0.56 0.51
0.40 0.38 0.43 0.40 0.35 0.34 0.32 0.32 0.31 0.30 0.31 0.31 0.31 0.27 0.24 0.20 0.18 0.18 0.19 0.20 0.22 0.26 0.32 0.41 0.51 0.59 0.69 0.87 1.02 1.09 1.08 1.04 1.01 0.99 0.98 1.01 1.03 1.06 1.12 1.16 1.06 0.88 0.69 0.55
0.51 0.40 0.40 0.34 0.28 0.31 0.29 0.25 0.23 0.21 0.20 0.21 0.21 0.20 0.18 0.20 0.20 0.19 0.20 0.22 0.26 0.29 0.34 0.43 0.53 0.61 0.73 0.87 0.95 0.98 0.99 0.97 0.94 0.95 0.97 0.96 0.99 1.02 1.02 1.09 1.10 1.04 0.90 0.72
0.43 0.33 0.27 0.26 0.26 0.26 0.26 0.26 0.24 0.23 0.20 0.17 0.16 0.14 0.14 0.15 0.17 0.20 0.22 0.27 0.37 0.40 0.45 0.56 0.62 0.66 0.79 0.91 1.00 0.99 0.97 0.90 0.85 0.86 0.91 0.92 0.94 0.97 0.96 1.02 1.04 1.04 0.95 0.78
0.40 0.30 0.23 0.22 0.23 0.24 0.24 0.23 0.21 0.19 0.18 0.16 0.15 0.13 0.12 0.14 0.18 0.22 0.25 0.28 0.35 0.42 0.51 0.65 0.68 0.68 0.81 0.94 1.04 1.03 0.97 0.87 0.75 0.74 0.78 0.83 0.88 0.90 0.89 0.92 0.94 0.96 0.86 0.67
0.30 0.28 0.24 0.24 0.25 0.25 0.25 0.23 0.20 0.19 0.19 0.19 0.18 0.17 0.20 0.26 0.35 0.41 0.42 0.43 0.46 0.45 0.47 0.59 0.65 0.71 0.79 0.89 0.97 1.01 0.98 0.91 0.78 0.68 0.66 0.73 0.79 0.84 0.86 0.86 0.86 0.87 0.79 0.60
0.22 0.23 0.24 0.27 0.28 0.27 0.25 0.24 0.25 0.25 0.26 0.25 0.25 0.28 0.32 0.39 0.51 0.59 0.60 0.63 0.69 0.67 0.59 0.57 0.62 0.65 0.74 0.80 0.84 0.94 0.91 0.85 0.75 0.60 0.59 0.64 0.72 0.82 0.83 0.78 0.80 0.80 0.71 0.59
0.15 0.16 0.18 0.26 0.38 0.41 0.39 0.37 0.39 0.38 0.35 0.34 0.36 0.40 0.46 0.51 0.60 0.70 0.73 0.71 0.71 0.76 0.71 0.62 0.58 0.61 0.66 0.70 0.73 0.79 0.77 0.77 0.74 0.56 0.53 0.66 0.75 0.81 0.78 0.71 0.73 0.72 0.62 0.58
0.11 0.10 0.11 0.14 0.20 0.27 0.31 0.31 0.33 0.37 0.39 0.45 0.54 0.64 0.71 0.69 0.72 0.83 0.93 0.82 0.67 0.69 0.67 0.60 0.54 0.54 0.57 0.68 0.71 0.74 0.71 0.70 0.73 0.62 0.54 0.63 0.73 0.77 0.74 0.68 0.64 0.59 0.53 0.53
0.12 0.10 0.11 0.13 0.14 0.15 0.15 0.17 0.24 0.35 0.43 0.49 0.56 0.69 0.83 0.89 0.92 0.91 0.83 0.81 0.74 0.72 0.64 0.57 0.51 0.48 0.48 0.55 0.67 0.71 0.70 0.69 0.72 0.69 0.62 0.63 0.70 0.73 0.72 0.63 0.56 0.50 0.48 0.49
0.11 0.09 0.07 0.07 0.09 0.11 0.12 0.14 0.19 0.28 0.39 0.46 0.55 0.74 0.91 0.96 1.05 1.18 1.00 0.74 0.67 0.68 0.63 0.54 0.50 0.46 0.43 0.42 0.55 0.64 0.64 0.69 0.71 0.71 0.66 0.61 0.59 0.61 0.61 0.55 0.50 0.49 0.52 0.55
0.09 0.07 0.06 0.06 0.07 0.10 0.13 0.16 0.19 0.27 0.36 0.43 0.51 0.68 0.90 1.06 1.03 0.94 0.89 0.77 0.66 0.59 0.57 0.52 0.43 0.41 0.39 0.36 0.44 0.53 0.58 0.63 0.61 0.59 0.56 0.52 0.54 0.57 0.53 0.51 0.50 0.52 0.57 0.60
0.10 0.09 0.09 0.11 0.15 0.20 0.27 0.32 0.36 0.40 0.48 0.51 0.52 0.57 0.69 0.92 1.08 0.91 0.73 0.67 0.63 0.54 0.53 0.53 0.46 0.40 0.36 0.34 0.35 0.43 0.49 0.52 0.51 0.50 0.48 0.48 0.50 0.50 0.46 0.45 0.47 0.51 0.56 0.59
0.08 0.09 0.10 0.13 0.19 0.29 0.42 0.54 0.62 0.66 0.75 0.81 0.72 0.66 0.67 0.74 0.85 0.85 0.72 0.62 0.57 0.55 0.50 0.50 0.47 0.42 0.38 0.36 0.34 0.37 0.43 0.49 0.52 0.50 0.45 0.48 0.48 0.46 0.47 0.50 0.47 0.47 0.50 0.50
0.09 0.10 0.12 0.16 0.22 0.33 0.49 0.64 0.78 0.87 0.95 1.04 0.99 0.84 0.77 0.75 0.78 0.79 0.72 0.65 0.62 0.60 0.58 0.55 0.53 0.50 0.47 0.43 0.37 0.36 0.43 0.50 0.53 0.53 0.52 0.54 0.57 0.57 0.54 0.52 0.48 0.45 0.44 0.40